Location: Greenwich
(51.4790°N, 0.0090°E)
Time: 23:27:26
(UTC+01:00)

Altair - Pass Details

Date: 17 April 2024
Orbit: 1502 x 1682 km, 47.2° (Epoch: 23 May)

Event Time Altitude Azimuth Distance (km) Brightness Sun altitude
Rises 00:13:17 0° 269° (W) 4,861 10.3 -27.1°
Reaches altitude 10° 00:16:28 10° 267° (W) 3,851 9.7 -27.3°
Maximum altitude 00:26:08 68° 188° (S) 1,676 7.4 -27.5°
Drops below altitude 10° 00:35:26 10° 108° (ESE) 3,708 9.3 -27.7°
Sets 00:38:26 0° 106° (ESE) 4,672 9.8 -27.8°
